Regional Weather Roundup
Issued by NWS

Home | Current Version | Previous Version | Text Only | Print | Product List | Glossary Off
Versions: 1 2 3 4 5 6 7 8 9 10 11 12 13 14 15 16 17 18 19 20 21 22 23 24 25 26 27 28 29 30 31 32 33 34 35 36 37 38 39 40 41 42 43 44 45 46 47 48 49 50

000
ASUS45 KBOU 211907
RWRCO

WEATHER ROUNDUP FOR COLORADO
NATIONAL WEATHER SERVICE DENVER/BOULDER CO
100 PM MDT THU AUG 21 2014

NOTE: "FAIR" INDICATES FEW OR NO CLOUDS BELOW 12000 FEET WITH NO
SIGNIFICANT WEATHER AND/OR OBSTRUCTIONS TO VISIBILITY.

COZ001>005-013-030-031-212000-
...NORTHWEST COLORADO...

CITY           SKY/WX    TMP DP  RH WIND       PRES   REMARKS
CRAIG          PTSUNNY   74  46  36 W12G17    30.20F
HAYDEN         PTSUNNY   70  45  40 NW8       30.22F
MEEKER         PTSUNNY   71  46  40 W7        30.21F
MOUNT WERNER   NOT AVBL
STEAMBOAT SPGS PTSUNNY   67  46  46 W5        30.24F
WALDEN         PTSUNNY   64  37  36 SW14G20   30.31S
$$

COZ006>008-011-212000-
...WEST CENTRAL VALLEYS...

CITY           SKY/WX    TMP DP  RH WIND       PRES   REMARKS
GRAND JUNCTION CLOUDY    76  48  37 VRB3      30.13F
MONTROSE       PTSUNNY   78  43  28 N9        30.19F
EAGLE          PTSUNNY   73  45  35 W13G21    30.24F
RIFLE          CLOUDY    76  45  33 W9        30.16F
DELTA          PTSUNNY   82  38  20 CALM      30.15F HAZE
NUCLA          PTSUNNY   77  41  27 NW8       30.24F
$$

COZ017>023-064>068-212000-
...SOUTHWEST COLORADO...

CITY           SKY/WX    TMP DP  RH WIND       PRES   REMARKS
DURANGO        PTSUNNY   79  36  21 SW9       30.23F
CORTEZ         MOSUNNY   80  39  23 VRB7      30.19F
PAGOSA SPRINGS PTSUNNY   74  31  20 SW10      30.30F
TELLURIDE      PTSUNNY   64  34  32 CALM      30.40S
WOLF CREEK PAS NOT AVBL
$$

COZ009-010-012-014-032>034-037-058>063-212000-
...CENTRAL COLORADO...

CITY           SKY/WX    TMP DP  RH WIND       PRES   REMARKS
ASPEN          PTSUNNY   72  38  29 N12G17    30.28F
BUENA VISTA    MOSUNNY   73  33  23 SE8       30.28S
COPPER MTN     CLOUDY    54  36  50 W18       30.57S
BERTHOUD PASS  FAIR      45  43  93 NW16G29   30.61S
COTTONWOOD PAS MOSUNNY   70  23  17 CALM      30.42S
GUNNISON       MOSUNNY   70  39  32 CALM      30.32F
KREMMLING      PTSUNNY   73  37  27 SW9       30.27F
LEADVILLE      MOSUNNY   64  29  26 W14G21    30.40F
SALIDA         MOSUNNY   80  31  17 SW14      30.31F
SUNLIGHT       PTSUNNY   57  46  67 CALM      30.52S
WILKERSON PASS NOT AVBL
$$

COZ069>075-212000-
...SAN LUIS VALLEY/SANGRE DE CRISTO MOUNTAINS...

CITY           SKY/WX    TMP DP  RH WIND       PRES   REMARKS
ALAMOSA        SUNNY     74  36  25 VRB6      30.28F
LA VETA PASS   NOT AVBL
SAGUACHE       SUNNY     73  34  23 N10       30.29F
$$

COZ035-036-038>040-212000-
...NORTHERN COLORADO FRONT RANGE...

CITY           SKY/WX    TMP DP  RH WIND       PRES   REMARKS
DENVER INTL AP MOSUNNY   79  46  31 SE7       30.10F
DMNS CITY PARK   N/A     82  42  24 E2G8      30.08F
AURORA         MOSUNNY   79  46  31 SE6       30.13F
FRONT RANGE AP NOT AVBL
ERIE MUNI ARPT SUNNY     84  41  22 CALM      30.07F
BOULDER MUN AP MOSUNNY   81  43  26 E8        30.07F
CENTENNIAL     MOSUNNY   79  43  27 VRB5      30.13F
BROOMFIELD     NOT AVBL
FORT COLLINS   SUNNY     82  50  32 SE13      30.06F
LONGMONT       SUNNY     86  47  25 SE5       30.08F
$$

COZ041-046-047-076>085-087-088-212000-
...PIKES PEAK/PALMER DIVIDE AND SOUTHERN FOOTHILLS...

CITY           SKY/WX    TMP DP  RH WIND       PRES   REMARKS
COLO. SPRINGS  MOSUNNY   80  46  30 SE8       30.17F
A. F. ACADEMY  MOSUNNY   78  46  31 S9        30.17F
ELLICOTT       SUNNY     79  49  34 S8        30.15F
FALCON         SUNNY     77  46  33 SE9       30.22F
FORT CARSON    NOT AVBL
LIMON          MOSUNNY   81  45  28 VRB6      30.10F
MONUMENT HILL  PTSUNNY   73  43  33 CALM      30.21F
TRINIDAD       SUNNY     84  44  24 CALM      30.13F
$$

COZ042>045-048>051-090-091-212000-
...NORTHEAST COLORADO...

CITY           SKY/WX    TMP DP  RH WIND       PRES   REMARKS
GREELEY ARPT   SUNNY     84  46  26 CALM      30.07F
AKRON          SUNNY     84  47  27 NW15G23   30.06F
BURLINGTON     SUNNY     88  46  23 N14G21    30.02F
WRAY             N/A     91  46  21 W8        29.99F
STERLING       SUNNY     90  50  25 NW6       30.01S
HOLYOKE        NOT AVBL
FORT MORGAN    MOSUNNY   86  43  22 N9G18     30.06S
$$

COZ086-089-092>099-212000-
...SOUTHEAST COLORADO...

CITY           SKY/WX    TMP DP  RH WIND       PRES   REMARKS
PUEBLO         SUNNY     87  45  23 VRB7      30.04F
LA JUNTA       NOT AVBL
LAMAR          NOT AVBL
SPRINGFIELD    NOT AVBL
$$



USA.gov is the U.S. government's official web portal to all federal, state and local government web resources and services.